Weather History for Thedford, NE

Change the Weather History Date:

Saturday, April 19, 2014

  Actual Average (KLBF) Record (KLBF)
Temperature  
Mean Temperature 60 °F 49 °F  
Max Temperature 70 °F 63 °F 89 °F (1987)
Min Temperature 50 °F 34 °F 17 °F (1953)
Degree Days  
Heating Degree Days 5 16  
Month to date heating degree days 367  
Since 1 July heating degree days 6232  
Cooling Degree Days 0 0  
Month to date cooling degree days 0  
Year to date cooling degree days 0  
Growing Degree Days 10 (Base 50)    
Moisture  
Dew Point 36 °F    
Average Humidity 43    
Maximum Humidity 70    
Minimum Humidity 23    
Precipitation  
Precipitation 0.00 in 0.09 in 2.22 in (1971)
Month to date precipitation 1.30  
Year to date precipitation 3.19  
Snow  
Snow 0.00 in 0.10 in 2.00 in (1966)
Month to date snowfall 2.6  
Since 1 July snowfall 27.9  
Snow Depth -    
Sea Level Pressure  
Sea Level Pressure 29.98 in    
Wind  
Wind Speed 15 mph (ENE)    
Max Wind Speed 29 mph    
Max Gust Speed 41 mph    
Visibility 10 miles    
Events      
T = Trace of Precipitation, MM = Missing Value Source: NWS Daily Summary

Daily Weather History Graph

Daily Weather History Graph

Search for Another Location

Airport:

Trip Planner

Search our weather history database for the weather conditions in past years. The results will help you decide how hot, cold, wet, or windy it might be!

Date:

Astronomy

Apr. 19, 2014 Rise Set
Actual Time 6:55 AM CDT 8:27 PM CDT
Civil Twilight 6:26 AM CDT 8:57 PM CDT
Nautical Twilight 5:50 AM CDT 9:32 PM CDT
Astronomical Twilight 5:13 AM CDT 10:10 PM CDT
Moon 12:16 AM CDT (4/19) 10:13 AM CDT (4/19)
Length of Visible Light 14h 30m
Length of Day
13h 32m
Waning Gibbous, 78% of the Moon is Illuminated
Apr 19
Waning Gibbous
Apr 22
Last Quarter
Apr 29
New
May 6
First Quarter
May 14
Full

Hourly Weather History & Observations

Time (CDT) Temp. Dew Point Humidity Pressure Visibility Wind Dir Wind Speed Gust Speed Precip Events Conditions
12:15 AM 62.6 °F 41.5 °F 46% 29.84 in 10.0 mi South 23.0 mph 33.4 mph N/A   Clear
12:35 AM 62.6 °F 41.2 °F 45% 29.84 in 10.0 mi South 28.8 mph 41.4 mph N/A   Clear
12:55 AM 61.9 °F 41.2 °F 47% 29.84 in 10.0 mi South 23.0 mph 34.5 mph N/A   Clear
1:15 AM 61.7 °F 41.0 °F 47% 29.85 in 10.0 mi South 26.5 mph 38.0 mph N/A   Clear
1:35 AM 61.7 °F 41.0 °F 47% 29.84 in 10.0 mi South 20.7 mph 29.9 mph N/A   Clear
1:55 AM 61.2 °F 40.8 °F 47% 29.84 in 10.0 mi South 28.8 mph 36.8 mph N/A   Clear
2:15 AM 60.8 °F 41.0 °F 48% 29.84 in 10.0 mi South 24.2 mph 34.5 mph N/A   Clear
2:35 AM 60.3 °F 41.0 °F 49% 29.83 in 10.0 mi South 19.6 mph 29.9 mph N/A   Clear
2:55 AM 59.4 °F 41.0 °F 51% 29.82 in 10.0 mi South 20.7 mph 28.8 mph N/A   Clear
3:15 AM 58.5 °F 41.0 °F 52% 29.83 in 10.0 mi South 21.9 mph 28.8 mph N/A   Clear
3:35 AM 58.1 °F 41.4 °F 54% 29.89 in 10.0 mi West 10.4 mph 21.9 mph N/A   Clear
3:55 AM 58.1 °F 41.7 °F 54% 29.88 in 10.0 mi SSW 9.2 mph - N/A   Clear
4:15 AM 58.1 °F 41.9 °F 55% 29.90 in 10.0 mi WSW 9.2 mph - N/A   Clear
4:35 AM 57.7 °F 41.9 °F 56% 29.87 in 10.0 mi South 11.5 mph 18.4 mph N/A   Clear
4:50 AM 57.4 °F 41.9 °F 56% 29.87 in 10.0 mi South 9.2 mph 18.4 mph N/A   Scattered Clouds
5:15 AM 56.3 °F 41.9 °F 59% 29.87 in 10.0 mi SSW 6.9 mph - N/A   Scattered Clouds
5:35 AM 55.2 °F 41.9 °F 61% 29.90 in 10.0 mi South 4.6 mph - N/A   Clear
5:55 AM 52.7 °F 41.4 °F 65% 29.92 in 10.0 mi NW 3.5 mph - N/A   Clear
6:15 AM 50.4 °F 40.8 °F 70% 29.93 in 10.0 mi Calm Calm - N/A   Clear
6:35 AM 52.2 °F 40.6 °F 65% 29.95 in 10.0 mi North 10.4 mph 17.3 mph N/A   Clear
6:55 AM 51.6 °F 40.1 °F 65% 29.96 in 10.0 mi North 12.7 mph 17.3 mph N/A   Clear
7:15 AM 51.1 °F 40.1 °F 66% 29.97 in 10.0 mi North 9.2 mph 17.3 mph N/A   Clear
7:35 AM 50.4 °F 40.3 °F 68% 29.97 in 10.0 mi North 10.4 mph - N/A   Clear
7:55 AM 50.5 °F 40.1 °F 67% 29.98 in 10.0 mi NNE 9.2 mph - N/A   Clear
8:15 AM 51.1 °F 40.1 °F 66% 29.98 in 10.0 mi NNE 9.2 mph 16.1 mph N/A   Clear
8:35 AM 51.4 °F 39.0 °F 63% 29.99 in 10.0 mi NNE 13.8 mph 18.4 mph N/A   Scattered Clouds
8:55 AM 52.0 °F 38.3 °F 60% 30.00 in 10.0 mi NNE 11.5 mph 16.1 mph N/A   Mostly Cloudy
9:15 AM 52.9 °F 37.2 °F 55% 30.01 in 10.0 mi NNE 10.4 mph - N/A   Scattered Clouds
9:35 AM 54.0 °F 36.3 °F 51% 30.02 in 10.0 mi NNE 15.0 mph - N/A   Clear
9:55 AM 54.7 °F 36.3 °F 50% 30.03 in 10.0 mi NNE 12.7 mph - N/A   Clear
10:15 AM 55.8 °F 34.9 °F 45% 30.02 in 10.0 mi NNE 15.0 mph 19.6 mph N/A   Clear
10:35 AM 58.3 °F 34.5 °F 41% 30.03 in 10.0 mi NE 15.0 mph 19.6 mph N/A   Clear
10:55 AM 60.4 °F 34.3 °F 38% 30.03 in 10.0 mi NNE 13.8 mph 19.6 mph N/A   Clear
11:15 AM 60.6 °F 34.9 °F 38% 30.03 in 10.0 mi NNE 13.8 mph 19.6 mph N/A   Clear
11:35 AM 61.0 °F 34.2 °F 37% 30.03 in 10.0 mi NE 16.1 mph 23.0 mph N/A   Clear
11:55 AM 62.2 °F 34.2 °F 35% 30.03 in 10.0 mi NNE 17.3 mph 21.9 mph N/A   Clear
12:15 PM 63.9 °F 33.6 °F 32% 30.03 in 10.0 mi NNE 17.3 mph 23.0 mph N/A   Clear
12:35 PM 63.7 °F 32.4 °F 31% 30.03 in 10.0 mi NNE 13.8 mph 21.9 mph N/A   Clear
12:55 PM 64.6 °F 32.4 °F 30% 30.02 in 10.0 mi NNE 15.0 mph 21.9 mph N/A   Clear
1:15 PM 65.1 °F 32.9 °F 30% 30.02 in 10.0 mi NE 17.3 mph 23.0 mph N/A   Clear
1:35 PM 66.4 °F 32.7 °F 29% 30.03 in 10.0 mi ENE 8.1 mph 20.7 mph N/A   Clear
1:55 PM 66.0 °F 31.6 °F 28% 30.04 in 10.0 mi NE 8.1 mph 19.6 mph N/A   Scattered Clouds
2:15 PM 67.6 °F 31.5 °F 26% 30.03 in 10.0 mi NE 8.1 mph - N/A   Clear
2:35 PM 67.3 °F 31.8 °F 27% 30.03 in 10.0 mi NE 9.2 mph 20.7 mph N/A   Clear
2:55 PM 68.5 °F 31.5 °F 25% 30.03 in 10.0 mi NNE 11.5 mph 16.1 mph N/A   Clear
3:15 PM 69.3 °F 30.2 °F 23% 30.03 in 10.0 mi East 12.7 mph 18.4 mph N/A   Clear
3:35 PM 68.9 °F 30.6 °F 24% 30.03 in 10.0 mi NE 10.4 mph 16.1 mph N/A   Clear
3:55 PM 70.0 °F 30.6 °F 23% 30.03 in 10.0 mi ENE 9.2 mph 16.1 mph N/A   Clear
4:15 PM 69.4 °F 30.7 °F 24% 30.02 in 10.0 mi NE 8.1 mph - N/A   Clear
4:35 PM 68.7 °F 30.9 °F 25% 30.02 in 10.0 mi NE 8.1 mph 17.3 mph N/A   Clear
4:55 PM 69.8 °F 30.0 °F 23% 30.01 in 10.0 mi East 6.9 mph 10.4 mph N/A   Clear
5:15 PM 67.3 °F 30.4 °F 25% 30.01 in 10.0 mi ESE 8.1 mph - N/A   Clear
5:35 PM 67.3 °F 30.4 °F 25% 30.02 in 10.0 mi East 6.9 mph - N/A   Scattered Clouds
5:55 PM 67.3 °F 31.1 °F 26% 30.02 in 10.0 mi East 8.1 mph - N/A   Scattered Clouds
6:15 PM 67.5 °F 30.7 °F 25% 30.02 in 10.0 mi ENE 8.1 mph - N/A   Scattered Clouds
6:35 PM 67.1 °F 31.1 °F 26% 30.02 in 10.0 mi ENE 6.9 mph - N/A   Clear
6:55 PM 66.7 °F 31.8 °F 27% 30.02 in 10.0 mi East 9.2 mph - N/A   Clear
7:15 PM 65.5 °F 31.5 °F 28% 30.02 in 10.0 mi East 9.2 mph - N/A   Scattered Clouds
7:35 PM 64.8 °F 32.2 °F 30% 30.02 in 10.0 mi East 5.8 mph - N/A   Scattered Clouds
7:55 PM 64.0 °F 32.9 °F 31% 30.01 in 10.0 mi East 4.6 mph - N/A   Scattered Clouds
8:15 PM 63.0 °F 33.4 °F 33% 30.02 in 10.0 mi East 5.8 mph - N/A   Overcast
8:35 PM 61.7 °F 34.5 °F 36% 30.02 in 10.0 mi East 5.8 mph - N/A   Mostly Cloudy
8:55 PM 61.2 °F 34.7 °F 37% 30.03 in 10.0 mi East 5.8 mph - N/A   Scattered Clouds
9:15 PM 60.1 °F 36.3 °F 41% 30.03 in 10.0 mi ENE 3.5 mph - N/A   Scattered Clouds
9:35 PM 59.0 °F 36.1 °F 42% 30.03 in 10.0 mi East 4.6 mph - N/A   Scattered Clouds
9:55 PM 58.8 °F 35.8 °F 42% 30.03 in 10.0 mi East 4.6 mph - N/A   Mostly Cloudy
10:15 PM 58.6 °F 36.0 °F 43% 30.04 in 10.0 mi East 3.5 mph - N/A   Overcast
10:35 PM 58.1 °F 35.6 °F 43% 30.03 in 10.0 mi East 3.5 mph - N/A   Overcast
10:55 PM 56.3 °F 36.3 °F 47% 30.03 in 10.0 mi East 4.6 mph - N/A   Mostly Cloudy
11:15 PM 55.4 °F 35.6 °F 47% 30.02 in 10.0 mi East 3.5 mph - N/A   Scattered Clouds
11:35 PM 53.6 °F 36.1 °F 52% 30.01 in 10.0 mi NE 4.6 mph - N/A   Clear
11:55 PM 51.6 °F 36.5 °F 56% 30.02 in 10.0 mi Calm Calm - N/A   Clear